Location: Aranbee
(34.0885°N, 118.2342°W)
Time: 05:02:56
(UTC+00:00)

deb Explorer IX - Pass Details

Date: 27 November 2020
Orbit: 536 x 1104 km, 38.8° (Epoch: 17 January)

Event Time Altitude Azimuth Distance (km) Brightness Sun altitude
Rises 02:02:48 0° 261° (W) 3,425 ? -16.1°
Reaches altitude 10° 02:05:33 10° 265° (W) 2,390 ? -16.6°
Maximum altitude 02:11:04 62° 346° (NNW) 802 ? -17.8°
Enters shadow 02:13:09 33° 54° (NE) 1,136 ? -18.2°
